Location: Laverne
(36.7100°N, 99.8930°W)
Time: 17:20:19
(UTC-06:00)

Daily predictions for brighter satellites

Satellite Brightness Start Highest point End
(mag) Time Altitude Azimuth Time Altitude Azimuth Time Altitude Azimuth
SJ-12 4.1 17:46:40 10° S 17:50:47 82° WSW 17:54:54 10° NNW
Cosmos 389 Rocket 2.6 17:48:03 10° N 17:51:31 80° W 17:54:56 10° S
Cosmos 2219 4.2 17:48:42 10° NNW 17:54:09 54° WSW 17:59:36 10° S
Cosmos 1271 Rocket 2.6 17:50:30 10° N 17:54:20 78° E 17:58:11 10° SSE
ALOS 3.8 17:51:50 10° E 17:54:25 15° ENE 17:56:59 10° NNE
Cosmos 372 Rocket 4.1 17:50:08 10° S 17:55:14 60° ESE 18:00:21 10° NNE
Meteor 2-9 Rocket 4.3 17:54:27 10° N 17:59:45 49° ENE 18:04:55 10° SSE
Cosmos 1980 Rocket 3.4 17:55:36 10° SSE 17:59:59 23° E 18:04:22 10° NE
SJ-7 4.3 17:56:08 10° SSE 18:00:06 70° ENE 18:04:05 10° N
USA 161 4.4 18:05:30 10° NNW 18:07:41 19° WNW 18:09:54 10° WSW
Cosmos 1666 2.9 18:05:53 10° NNW 18:09:37 71° W 18:13:19 10° S
Cosmos 1656 3.6 18:04:03 10° SSW 18:09:38 82° ESE 18:15:10 10° NNE
NOSS 3-2 (A) 4.2 18:03:58 10° NNW 18:11:22 52° NE 18:19:19 10° SE
Cosmos 2297 Rocket 2.2 18:06:40 10° NNW 18:12:19 66° ENE 18:17:54 10° SSE
Cosmos 1484 Rocket 2.9 18:08:28 10° S 18:12:28 85° WSW 18:16:31 10° NNW
Cosmos 1455 Rocket 3.5 18:13:44 10° NNW 18:18:08 67° W 18:22:27 10° S
NOSS 3-2 (C) 4.3 18:12:26 10° NNW 18:19:40 45° NE 18:27:28 10° ESE
Cosmos 2266 Rocket 3.9 18:14:16 10° N 18:20:21 67° E 18:26:31 10° SSE
Cosmos 1544 Rocket 4.4 18:18:16 10° NNW 18:22:31 54° W 18:26:43 10° S
PSLV R/B 4.0 18:20:16 10° WNW 18:23:15 35° N 18:25:00 19° NE
ATLAS 3B R/B 2.7 18:16:51 10° NNW 18:23:31 85° WSW 18:30:02 10° SSE
ATLAS 2AS CENTAUR R/B 4.2 18:16:30 10° WSW 18:23:37 37° NW 18:31:03 10° NNE
Atlas Centaur 2 3.7 18:19:31 10° WSW 18:24:33 29° SSW 18:28:41 10° SE
USA 116 3.0 18:22:02 10° NNE 18:25:09 87° ESE 18:28:14 10° SSW
Cosmos 158 Rocket 4.0 18:20:09 10° NNW 18:25:12 82° WSW 18:30:07 10° SSE
YAOGAN 1 2.6 18:21:54 10° SSE 18:26:08 57° ENE 18:30:23 10° N
DELTA 2 R/B (1) 3.6 18:21:52 10° WNW 18:27:25 68° N 18:31:48 17° E
MINOTAUR IV R/B 4.5 18:25:52 10° NNW 18:30:21 71° ENE 18:34:48 10° SSE
IRS-1A Rocket 4.2 18:26:49 10° SSE 18:32:24 77° ENE 18:37:56 10° N
USA 215 3.2 18:26:57 10° SE 18:33:28 83° NE 18:40:02 10° NW
BREEZE-M DEB (TANK) 3.1 18:31:44 10° NW 18:34:51 86° SW 18:45:40 10° SE
ISS -1.8 18:33:51 10° WNW 18:36:47 30° SW 18:39:41 10° SSE
Meteor 2-4 Rocket 4.2 18:32:08 10° SSW 18:37:29 59° W 18:42:47 10° N
RESURS DK-1 3.0 18:38:42 10° S 18:42:26 34° ESE 18:43:46 27° ENE
METEOR-M 4.0 18:37:20 10° SSE 18:42:40 80° ENE 18:48:01 10° N
SL-16 R/B 3.7 18:39:16 10° SE 18:42:32 17° ESE 18:42:32 17° ESE
FENGYUN 3A 3.8 18:38:49 10° SE 18:43:57 48° ENE 18:49:06 10° N
SJ 16-02 2.8 18:40:37 10° SW 18:44:40 37° WNW 18:48:47 10° N
NOSS 3-4 (A) 3.5 18:38:30 10° SW 18:44:42 82° WNW 18:50:24 14° NNE
NOSS 3-4 (C) 3.5 18:38:35 10° SSW 18:44:47 83° WNW 18:50:28 14° NNE
COSMO-SKYMED 1 2.5 18:41:05 10° NNE 18:45:26 84° ESE 18:49:47 10° S
Cosmos 2322 Rocket 3.6 18:43:27 10° SE 18:46:37 18° ESE 18:46:37 18° ESE
Cosmos 724 4.4 18:42:14 10° NNW 18:48:01 76° WSW 18:53:50 10° SSE
Cosmos 2360 4.2 18:46:15 10° S 18:51:52 63° ESE 18:55:56 19° NNE
NOSS 2-2 (D) 3.7 18:48:57 10° S 18:52:37 42° ESE 18:53:33 36° E
Hubble Space Telescope 3.5 18:50:51 10° SW 18:52:57 14° SSW 18:55:03 10° SSE
Cosmos 1515 4.0 18:52:38 10° SSW 18:56:23 65° W 19:00:10 10° N
Cosmos 1244 Rocket 4.5 18:50:31 10° N 18:56:35 57° E 19:02:38 10° SSE
Shenzhou-11 Module 3.9 18:57:23 10° SSW 18:59:11 19° SSE 18:59:11 19° SSE
EO 1 Del DPAF 3.3 18:57:25 15° N 19:00:28 78° WNW 19:04:15 10° SSW
CZ-4 R/B 3.2 18:57:31 10° SSW 19:01:01 32° W 19:04:34 10° NNW
DELTA 2 R/B (2) 4.1 18:58:37 10° WSW 19:01:23 83° SSE 19:01:50 64° E
Cosmos 1697 Rocket 3.3 18:56:33 10° SW 19:02:04 55° WNW 19:07:36 10° NNE
CENTAUR R/B 3.5 18:55:32 10° NNW 19:02:54 39° NE 19:06:43 26° E
Meteor 2-11 Rocket 4.5 18:57:45 10° S 19:03:55 86° W 19:10:06 10° N
Cosmos 1025 Rocket 3.4 19:02:33 10° SSW 19:06:49 64° W 19:11:04 10° N
NOSS 2-2 (E) 3.2 19:04:14 10° SSW 19:08:05 79° ESE 19:09:04 51° NE
SPOT 3 Rocket 3.4 19:03:00 10° SSE 19:08:11 83° ENE 19:13:22 10° NNW
ERS-2 2.3 19:06:50 10° S 19:10:28 72° WSW 19:14:07 10° NNW
Okean 1-7 Rocket 3.7 19:09:12 10° SSW 19:13:34 75° W 19:16:54 17° N
Cosmos 1553 Rocket 4.0 19:07:24 10° S 19:13:41 61° E 19:19:12 14° NNE
NOSS 2-2 (C) 3.1 19:11:13 10° SSW 19:15:03 80° ESE 19:15:28 69° ENE
Cosmos 1417 Rocket 4.3 19:10:55 10° S 19:17:03 75° E 19:23:16 10° N
Cosmos 494 Rocket 3.8 19:14:50 10° NNW 19:20:08 81° ENE 19:25:22 10° SSE
Thor Agena Rocket 3.7 19:21:14 50° E 19:21:23 50° E 19:26:30 10° S
Cosmos 2251 Rocket 3.5 19:18:01 10° N 19:23:03 55° ENE 19:23:03 55° ENE
Cosmos 1184 Rocket 3.7 19:20:42 10° SSW 19:23:06 45° SSW 19:23:06 45° SSW
Gblst 52 Del rocket 4.2 19:24:00 10° NW 19:29:45 73° NE 19:31:13 53° ESE
Cosmos 1745 Rocket 4.0 19:23:45 10° N 19:29:51 55° E 19:35:59 10° SSE
ALOS 3.1 19:26:51 10° S 19:31:23 51° W 19:35:56 10° NNW
FengYun 1-2 T 4.1 19:29:31 10° SSE 19:35:06 74° ENE 19:40:45 10° N
Cosmos 1606 Rocket 3.9 19:34:30 10° NNW 19:39:35 56° SSW 19:43:07 10° S
DNEPR-1 R/B 4.2 19:36:13 10° NNW 19:41:36 89° SW 19:44:24 35° SSE
Cosmos 1980 Rocket 3.2 19:38:17 10° SW 19:43:38 43° WNW 19:46:52 22° N
SL-8 R/B 3.8 19:38:52 10° WSW 19:43:15 73° W 19:43:15 73° W
BREEZE-M R/B 4.3 19:54:01 10° SSW 19:55:56 31° S 19:55:56 31° S
Lacrosse 5 rocket 3.5 20:03:36 10° SW 20:05:08 22° SW 20:05:08 22° SW
DELTA 2 R/B (1) 4.4 20:08:25 10° WNW 20:12:35 49° W 20:12:35 49° W
SL-16 R/B 3.3 20:20:47 10° SW 20:24:29 39° WSW 20:24:29 39° WSW
Cosmos 2322 Rocket 3.5 20:25:12 10° SW 20:28:30 34° WSW 20:28:30 34° WSW
Cosmos 2344 3.8 20:34:38 10° SW 20:41:24 64° W 20:41:24 64° W
CENTAUR R/B 3.7 20:46:05 10° NW 20:53:54 53° WSW 20:54:02 53° WSW
